User: anonymous   Login
Location: Denia
(38.8500°N, 0.1170°E)
Time: 03:06:12
(UTC+01:00)
Language:

Envisat - Orbit

View from above orbital plane
View from above orbital plane
View from above satellite
View from above satellite

Ground track
Ground track

The orbit data is extracted from the following two-line orbital elements,

1 27386U 02009A   20056.51001994  .00000013  00000-0  17640-4 0  9995
2 27386  98.1398  69.4797 0001230  95.4024  63.2260 14.37972472942389
Epoch (UTC): 25 February 2020 12:14:25
Eccentricity: 0.0001230
inclination: 98.1398°
perigee height: 764 km
apogee height: 766 km
right ascension of ascending node: 69.4797°
argument of perigee: 95.4024°
revolutions per day: 14.37972472
mean anomaly at epoch: 63.2260°
orbit number at epoch: 94238

The dashed part of the orbit path shows where the satellite is in the earth's shadow,  

DLR